Temp
8 8 8 8 8 8 8 8 8 8 8 8 8 8 9 9 9 9 9 9 8 8 7 7 7 7 6 6 6 5 5 5 5
8 8 8 8 8 8 8 8 8 8 8 8 8 8 8 8 8 8 8 8 7 7 7 7 7 6 6 6 5 5 5 5 5
8 8 8 8 8 8 8 8 8 8 8 8 8 8 8 8 8 8 8 7 7 7 7 6 6 6 6 5 5 5 5 5 4
8 8 8 8 7 7 8 8 8 8 8 8 8 8 8 7 7 7 7 7 6 6 6 6 6 6 6 5 5 5 5 4 4
8 8 7 7 7 7 7 7 7 8 8 8 7 7 7 7 7 7 7 7 6 6 6 6 6 6 6 5 5 5 4 4 4
8 7 7 7 7 7 7 7 7 7 8 8 7 7 7 7 7 7 7 6 6 6 6 6 6 6 5 5 5 5 5 4 4
7 7 7 7 7 7 7 7 7 7 7 7 7 7 7 7 7 6 6 6 6 6 6 6 6 5 5 5 5 5 5 5 5
7 7 7 7 7 7 7 6 7 7 7 7 7 7 7 6 6 6 6 6 6 6 6 5 5 5 5 5 5 5 5 5 5
7 7 6 6 7 7 6 6 7 7 7 7 7 7 6 6 6 6 6 6 6 5 5 5 5 5 5 5 5 5 5 5 5
7 7 6 6 6 6 6 6 6 6 6 7 7 7 7 6 6 6 6 6 6 5 5 5 5 5 5 5 5 5 5 5 5
7 6 6 6 6 6 6 6 6 6 6 6 7 7 6 6 6 6 6 6 6 6 5 5 5 5 5 5 5 5 5 5 5
6 6 6 6 6 6 6 6 6 6 5 6 6 6 6 6 6 6 6 6 6 6 5 5 5 5 5 5 5 5 5 5 5
6 6 6 6 5 5 6 6 6 6 6 6 6 6 6 6 6 6 6 6 6 6 5 5 5 5 5 5 5 5 5 4 5
5 5 6 5 5 5 5 5 5 5 6 6 5 5 6 6 6 6 6 6 6 6 6 5 5 5 5 5 5 5 5 5 5
5 5 5 5 5 5 5 5 5 5 5 5 5 5 5 5 6 6 6 6 6 6 6 6 6 5 5 5 5 5 5 5 5
6 6 5 5 5 5 5 5 5 5 5 4 5 5 5 6 6 6 6 6 6 6 6 6 6 5 5 5 5 4 4 5 5
6 6 6 5 5 5 5 5 5 5 5 4 4 4 5 6 6 6 6 6 6 6 5 5 5 5 5 5 5 5 4 4 5
5 5 5 5 5 5 5 5 5 4 5 5 4 4 4 6 5 5 5 6 5 5 6 5 5 5 5 5 5 5 4 4 4
5 5 5 5 5 5 5 4 4 4 4 4 4 3 4 5 5 5 5 5 5 5 5 5 5 5 4 4 5 4 4 4 4
4 4 4 4 5 5 5 4 4 4 4 4 4 4 3 4 4 4 5 4 4 4 4 4 4 4 4 4 4 4 4 4 4
Height
3181 3181 3181 3180 3179 3178 3176 3175 3175 3175 3174 3174 3174 3174 3174 3174 3173 3171 3171 3171 3170 3170 3169 3167 3166 3164 3163 3161 3160 3158 3156 3154 3152
3181 3181 3181 3181 3180 3179 3178 3176 3175 3175 3174 3174 3174 3174 3174 3174 3174 3173 3172 3172 3171 3171 3170 3169 3167 3166 3164 3162 3161 3159 3157 3155 3153
3181 3181 3181 3180 3180 3179 3178 3177 3176 3175 3175 3174 3174 3174 3174 3174 3174 3174 3172 3171 3171 3171 3170 3169 3168 3167 3165 3164 3162 3161 3159 3157 3155
3181 3181 3180 3180 3179 3178 3178 3177 3177 3176 3175 3175 3174 3174 3174 3174 3174 3174 3173 3172 3172 3172 3171 3170 3169 3168 3166 3165 3164 3162 3160 3159 3156
3180 3180 3180 3180 3179 3177 3176 3176 3176 3176 3176 3175 3175 3174 3174 3174 3174 3174 3174 3173 3173 3172 3172 3171 3170 3168 3167 3165 3164 3162 3161 3159 3157
3178 3178 3178 3178 3178 3178 3176 3175 3175 3175 3175 3175 3175 3174 3173 3173 3173 3173 3173 3172 3172 3172 3172 3171 3170 3168 3167 3165 3164 3163 3161 3159 3157
3176 3176 3177 3177 3177 3177 3177 3175 3174 3174 3174 3174 3174 3173 3172 3172 3172 3172 3172 3172 3172 3171 3171 3170 3169 3168 3167 3165 3163 3162 3161 3159 3157
3173 3174 3174 3174 3175 3175 3174 3175 3174 3172 3172 3172 3173 3172 3172 3171 3171 3171 3171 3171 3171 3170 3170 3170 3169 3167 3166 3165 3164 3162 3161 3159 3157
3170 3170 3171 3171 3172 3172 3172 3172 3172 3171 3170 3170 3170 3171 3170 3170 3169 3169 3169 3170 3169 3169 3168 3168 3167 3167 3165 3164 3163 3161 3160 3159 3157
3165 3166 3166 3167 3168 3168 3169 3169 3169 3169 3168 3167 3168 3169 3169 3168 3168 3168 3168 3168 3167 3167 3167 3167 3166 3165 3164 3163 3162 3160 3159 3158 3157
3159 3160 3161 3162 3164 3165 3165 3165 3165 3165 3165 3165 3165 3165 3166 3166 3165 3166 3165 3165 3166 3165 3165 3164 3164 3164 3162 3161 3160 3159 3158 3157 3155
3152 3153 3155 3157 3158 3159 3160 3161 3161 3161 3161 3161 3161 3161 3162 3163 3162 3163 3162 3162 3163 3162 3162 3162 3162 3161 3161 3160 3159 3157 3156 3155 3153
3146 3146 3147 3150 3151 3153 3154 3155 3155 3155 3155 3155 3157 3157 3157 3158 3158 3159 3159 3159 3159 3159 3159 3159 3159 3159 3158 3157 3156 3155 3155 3153 3152
3138 3139 3140 3141 3143 3145 3146 3147 3148 3149 3150 3150 3151 3152 3152 3152 3153 3154 3155 3155 3155 3155 3155 3155 3155 3155 3155 3155 3153 3153 3153 3151 3150
3128 3130 3132 3134 3135 3136 3138 3140 3141 3143 3144 3144 3143 3144 3145 3146 3148 3149 3150 3150 3151 3150 3150 3150 3151 3151 3150 3151 3150 3149 3149 3149 3148
3117 3120 3123 3125 3127 3129 3130 3132 3133 3135 3137 3137 3137 3137 3138 3139 3141 3143 3145 3146 3146 3146 3145 3145 3146 3146 3145 3146 3146 3145 3145 3145 3145
3106 3108 3111 3115 3116 3120 3122 3123 3124 3127 3129 3130 3131 3129 3131 3133 3135 3136 3138 3140 3141 3141 3140 3140 3140 3140 3140 3141 3141 3140 3140 3140 3139
3093 3095 3098 3102 3104 3107 3112 3115 3116 3118 3120 3122 3123 3121 3120 3126 3128 3129 3130 3132 3133 3134 3134 3134 3135 3134 3134 3134 3135 3134 3134 3134 3134
3080 3083 3086 3090 3093 3095 3100 3104 3107 3110 3110 3112 3114 3114 3115 3115 3116 3119 3122 3123 3124 3126 3127 3127 3128 3128 3128 3129 3129 3128 3127 3127 3126
3067 3070 3073 3077 3081 3085 3088 3092 3094 3099 3098 3102 3106 3105 3106 3105 3106 3109 3114 3115 3118 3117 3118 3119 3119 3120 3121 3121 3122 3121 3120 3120 3119
Wind_Speed
2 1 2 4 6 7 9 8 6 4 2 1 2 1 2 2 4 3 2 4 4 6 7 7 8 8 8 8 9 11 12 14 16
5 4 3 3 5 8 10 9 6 3 1 1 2 2 3 3 2 3 3 4 4 6 7 7 8 8 8 8 9 11 13 15 16
7 6 5 4 4 6 8 9 8 5 2 1 2 3 2 3 2 2 2 3 4 4 6 7 8 9 9 8 9 11 14 16 17
9 8 7 6 4 5 7 8 9 7 4 2 1 2 3 3 2 1 1 1 3 4 5 6 7 9 9 8 9 10 13 14 16
12 11 9 9 8 5 4 6 8 8 7 4 2 2 3 3 3 2 2 1 1 3 4 6 7 8 8 8 8 8 11 12 14
14 15 12 10 10 10 7 5 6 6 6 6 4 4 4 5 4 4 3 3 2 1 3 4 6 8 8 7 8 9 11 13 14
16 16 15 14 11 11 11 8 6 5 6 6 5 5 6 5 5 4 4 4 4 3 2 4 6 7 7 7 7 8 10 12 13
18 17 16 16 14 13 13 13 10 8 7 7 6 5 7 7 7 6 6 6 6 5 4 3 5 6 7 8 9 9 9 11 13
22 20 19 17 17 15 16 15 14 12 10 9 8 7 7 8 8 8 8 9 8 7 6 5 5 6 7 8 9 10 10 12 13
25 24 23 20 19 18 16 17 16 16 14 13 11 10 9 10 10 10 10 10 10 9 9 8 7 7 8 9 10 11 12 13 15
30 27 26 26 23 20 18 18 19 18 18 16 14 13 11 11 11 11 11 12 12 12 11 11 10 10 10 10 11 12 13 13 14
33 32 29 28 28 26 25 25 24 24 19 18 18 17 15 14 13 13 13 13 14 13 14 14 14 13 12 11 12 12 12 12 13
38 36 34 31 31 30 29 29 28 26 24 20 22 20 20 17 16 17 16 14 14 15 15 16 17 16 15 14 14 13 12 12 13
44 43 39 36 34 33 32 32 32 30 28 28 24 23 23 21 21 20 20 18 17 15 16 18 18 19 19 18 16 16 15 14 14
49 48 46 42 39 36 35 33 34 32 29 31 31 27 25 24 25 24 23 20 20 18 17 18 19 20 21 20 20 18 18 17 16
53 52 50 49 45 43 40 37 36 35 33 33 34 33 31 28 27 26 25 22 21 21 20 20 21 21 23 23 24 23 21 20 20
55 56 54 52 51 48 46 42 41 38 37 36 36 40 36 33 32 30 27 25 23 23 22 23 23 22 24 24 26 26 25 24 24
57 56 57 55 55 53 50 47 45 41 41 39 38 42 45 36 34 33 31 29 28 25 25 25 26 26 25 26 26 28 29 28 27
60 59 58 57 56 56 55 52 47 49 48 44 42 43 45 42 40 38 34 33 31 27 26 26 26 28 28 27 27 29 31 31 31
58 60 60 60 58 55 55 55 55 49 46 51 48 40 45 50 46 48 44 36 33 31 28 28 28 29 30 30 30 31 33 33 33
Wind_Direction
258 249 271 309 324 331 347 349 345 358 4 266 227 205 156 182 159 149 92 67 61 48 39 36 38 31 34 34 24 16 16 15 11
249 263 272 311 334 342 351 357 355 4 2 244 213 219 176 187 201 159 120 87 58 47 36 30 28 25 27 25 19 16 16 14 14
249 255 271 290 321 337 352 357 360 0 7 268 220 226 207 193 220 204 154 114 78 55 33 31 22 17 13 12 11 12 8 8 10
260 265 270 274 289 324 339 349 359 358 353 321 276 256 236 213 219 248 249 138 74 49 38 34 21 11 7 4 1 3 1 3 4
263 265 268 274 273 275 305 332 348 358 351 329 303 251 250 237 206 216 235 279 82 48 30 17 13 7 3 356 351 345 351 357 357
267 267 269 270 272 279 283 300 323 340 348 335 309 273 245 229 219 217 214 233 269 342 14 5 359 355 355 352 349 344 344 346 350
268 268 270 272 269 272 279 280 290 308 321 327 313 278 261 247 236 228 241 236 258 276 322 343 344 346 349 346 339 339 342 342 345
268 268 269 270 269 268 267 277 285 290 297 302 309 287 268 252 241 234 243 240 244 265 286 310 323 331 337 337 334 335 336 337 338
262 263 266 266 264 263 263 263 274 280 282 285 288 291 274 264 250 238 237 246 239 244 257 273 294 309 319 326 328 327 324 326 332
259 259 261 263 263 260 257 259 265 272 273 278 278 277 275 270 262 249 242 247 247 245 252 264 276 290 302 314 322 323 322 323 329
254 257 257 257 260 256 251 256 264 261 269 272 275 273 269 266 266 260 248 248 251 250 252 256 264 272 285 296 309 318 318 321 327
248 251 253 254 254 253 253 258 262 268 263 268 268 268 267 264 265 265 259 251 253 251 253 255 258 263 272 285 295 308 314 312 318
250 249 249 251 253 252 252 255 258 263 266 261 267 266 265 262 261 261 261 259 256 254 253 255 257 261 266 270 278 288 297 297 307
251 253 251 249 251 251 253 252 256 258 262 264 258 255 260 264 260 257 257 257 257 258 257 257 258 258 261 265 271 280 288 295 298
251 251 253 254 250 250 250 253 256 259 262 265 268 257 252 258 261 261 258 256 257 257 258 261 261 259 261 263 266 270 277 285 291
251 251 251 253 255 252 252 252 252 254 258 264 268 268 265 259 261 260 262 263 262 259 256 260 264 261 261 262 264 266 269 275 281
253 253 251 251 253 254 254 252 252 251 254 259 264 267 260 258 259 259 260 264 263 260 258 258 259 260 262 264 263 265 267 268 271
251 252 252 250 250 251 252 254 252 253 252 252 256 262 265 261 258 262 258 256 256 257 256 258 260 259 259 260 262 263 264 265 266
251 251 252 252 251 250 250 250 255 253 252 251 255 258 264 267 262 262 255 256 253 255 255 257 259 260 259 259 260 260 261 262 264
251 251 251 251 251 252 251 250 249 247 257 255 252 258 258 256 261 261 256 258 259 258 256 256 257 257 256 254 257 259 260 262 263